Location: Dötzum
(52.0808°N, 9.8063°E)
Time: 05:34:26
(UTC+00:00)

USA 215 - Pass Details

Date: 27 May 2022
Orbit: 1099 x 1108 km, 123.0° (Epoch: 10 June)

Event Time Altitude Azimuth Distance (km) Brightness Sun altitude
Rises 01:16:44 0° 72° (ENE) 3,922 6.9 -12.2°
Reaches altitude 10° 01:19:14 10° 69° (ENE) 2,964 6.3 -12.0°
Maximum altitude 01:25:39 61° 352° (N) 1,238 3.8 -11.5°
Drops below altitude 10° 01:32:05 10° 273° (W) 2,968 5.3 -11.0°
Sets 01:34:35 0° 271° (W) 3,926 5.8 -10.8°
